Location: Devore Heights
(34.2372°N, 117.4156°W)
Time: 15:01:55
(UTC+00:00)

deb Explorer IX - All Passes

Search period start: 13 September 2024 00:00
Search period end: 23 September 2024 00:00
Orbit: 505 x 849 km, 38.7° (Epoch: 13 September)

Date Brightness Start Highest point End Pass type
(mag) Time Alt. Az. Time Alt. Az. Time Alt. Az.
13 Sep - 02:43:54 10° SSW 02:48:52 28° SE 02:53:48 10° E visible
13 Sep - 04:26:31 10° WSW 04:32:28 85° SSE 04:38:11 10° ENE visible
13 Sep - 06:10:55 10° W 06:16:39 55° N 06:21:59 10° ENE visible
13 Sep - 07:55:25 10° WNW 08:00:58 63° NNE 08:06:01 10° E night (unlit)
13 Sep - 09:39:38 10° WNW 09:44:46 53° SSW 09:49:22 10° SE night (unlit)
13 Sep - 11:26:10 10° WSW 11:27:38 11° SW 11:29:04 10° SSW night (unlit)
14 Sep - 01:37:33 10° S 01:40:58 16° SE 01:44:24 10° ESE daylight
14 Sep - 03:18:28 10° SW 03:24:14 57° SSE 03:29:57 10° ENE visible
14 Sep - 05:02:20 10° W 05:08:13 65° NNW 05:13:50 10° ENE visible
14 Sep - 06:46:55 10° WNW 06:52:34 55° N 06:57:49 10° E night (unlit)
14 Sep - 08:31:08 10° WNW 08:36:41 85° SSW 08:41:40 10° ESE night (unlit)
14 Sep - 10:15:53 10° W 10:19:58 24° SW 10:23:44 10° SSE night (unlit)
15 Sep - 02:10:47 10° SSW 02:16:02 35° SE 02:21:21 10° E visible
15 Sep - 03:53:47 10° WSW 03:59:43 84° NNW 04:05:33 10° ENE visible
15 Sep - 05:38:13 10° W 05:43:59 54° N 05:49:28 10° ENE visible
15 Sep - 07:22:35 10° WNW 07:28:19 70° NNE 07:33:32 10° E night (unlit)
15 Sep - 09:06:51 10° WNW 09:12:00 44° SSW 09:16:40 10° SE night (unlit)
16 Sep - 01:03:47 10° S 01:07:53 20° SE 01:12:04 10° E daylight
16 Sep - 02:45:25 10° SW 02:51:13 69° SSE 02:57:04 10° ENE visible
16 Sep - 04:29:26 10° W 04:35:17 61° N 04:40:59 10° ENE visible
16 Sep - 06:13:55 10° WNW 06:19:42 58° N 06:25:06 10° E visible
16 Sep - 07:58:04 10° WNW 08:03:44 73° SSW 08:08:52 10° ESE night (unlit)
16 Sep - 09:43:10 10° W 09:46:53 19° SW 09:50:23 10° S night (unlit)
17 Sep - 01:37:23 10° SW 01:42:45 43° SSE 01:48:18 10° ENE daylight
17 Sep - 03:20:40 10° WSW 03:26:32 75° NNW 03:32:25 10° ENE visible
17 Sep - 05:05:05 10° WNW 05:10:53 54° N 05:16:27 10° ENE visible
17 Sep - 06:49:19 10° WNW 06:55:10 79° NNE 07:00:34 10° ESE night (unlit)
17 Sep - 08:33:40 10° W 08:38:44 36° SW 08:43:24 10° SSE night (unlit)
18 Sep - 00:29:54 10° SSW 00:34:22 25° SE 00:39:01 10° E daylight
18 Sep - 02:12:01 10° WSW 02:17:46 80° SSE 02:23:41 10° ENE visible
18 Sep - 03:56:07 10° W 04:01:56 57° N 04:07:41 10° ENE visible
18 Sep - 05:40:28 10° WNW 05:46:19 62° N 05:51:54 10° E visible
18 Sep - 07:24:35 10° WNW 07:30:17 62° SSW 07:35:32 10° SE night (unlit)
18 Sep - 09:10:09 10° WSW 09:13:20 16° SW 09:16:22 10° S night (unlit)
18 Sep - 23:23:42 10° SSE 23:26:02 13° SE 23:28:26 10° ESE daylight
19 Sep - 01:03:39 10° SW 01:09:03 52° SSE 01:14:44 10° ENE daylight
19 Sep - 02:47:09 10° W 02:52:55 68° NNW 02:58:49 10° ENE visible
19 Sep - 04:31:29 10° WNW 04:37:17 55° N 04:42:58 10° E visible
19 Sep - 06:15:37 10° WNW 06:21:30 89° NNE 06:27:04 10° ESE visible
19 Sep - 08:00:06 10° W 08:04:59 30° SW 08:09:34 10° SSE night (unlit)
19 Sep - 23:55:45 10° SSW 00:00:25 30° SE 00:05:22 10° E daylight
20 Sep - 01:38:16 10° WSW 01:43:54 89° NNW 01:49:50 10° ENE daylight
20 Sep - 03:22:24 10° W 03:28:07 56° N 03:33:54 10° ENE visible
20 Sep - 05:06:35 10° WNW 05:12:29 68° NNE 05:18:11 10° E visible
20 Sep - 06:50:41 10° WNW 06:56:20 52° SSW 07:01:39 10° SE night (unlit)
20 Sep - 08:37:01 10° WSW 08:39:18 13° SW 08:41:31 10° SSW night (unlit)
20 Sep - 22:48:46 10° S 22:51:52 16° SE 22:55:08 10° ESE daylight
21 Sep - 00:29:36 10° SW 00:34:56 61° SSE 00:40:40 10° ENE daylight
21 Sep - 02:13:15 10° W 02:18:52 63° N 02:24:44 10° ENE visible
21 Sep - 03:57:29 10° WNW 04:03:14 57° N 04:09:01 10° E visible
21 Sep - 05:41:28 10° WNW 05:47:23 80° SSW 05:53:03 10° ESE visible
21 Sep - 07:26:08 10° W 07:30:45 25° SW 07:35:08 10° SSE night (unlit)
21 Sep - 23:21:19 10° SSW 23:26:04 36° SE 23:31:11 10° E daylight
22 Sep - 01:04:08 10° WSW 01:09:37 80° NNW 01:15:29 10° ENE daylight
22 Sep - 02:48:15 10° WNW 02:53:52 54° N 02:59:38 10° ENE visible
22 Sep - 04:32:17 10° WNW 04:38:10 75° NNE 04:43:59 10° ESE visible
22 Sep - 06:16:22 10° WNW 06:21:55 43° SSW 06:27:13 10° SE visible
22 Sep - 22:13:45 10° S 22:17:17 19° SE 22:21:03 10° E daylight
